Home > Weather > Osorno > Past weeks

Flag for Chile Weather for the Past 2 Weeks in Osorno, Chile

Now
55 °F

Sunny.


Feels Like: 55 °F
Forecast: 31 / 64 °F
Wind: 2 mph from North

Location: Puerto Montt Airport

Current Time: Apr 30, 2016 at 12:15:17 PM

Latest Report: Apr 30, 2016 at 12:00 PM


Visibility: 10 mi

Pressure: 30.01 "Hg

Humidity: 67%

Dew Point: 45 °F

Location of OsornoLocation

Historic Weather in Osorno — Graph

°F

Osorno Temperature Yesterday

Maximum temperature yesterday: 64 °F (at 1:00 PM)
Minimum temperature yesterday: 41 °F (at 3:00 AM)
Average temperature yesterday: 51 °F

High & Low Weather Summary for the Past Weeks

 TemperatureHumidityPressure
High64 °F (Apr 29, 1:00 PM)100% (Apr 17, 8:00 AM)30.45 "Hg (Apr 17, 8:00 AM)
Low30 °F (Apr 17, 8:00 AM)37% (Apr 29, 1:00 PM)29.53 "Hg (Apr 15, 11:00 AM)
Average47 °F84%30.03 "Hg
* Reported Apr 15 11:00 AM — Apr 30 11:00 AM, Osorno, Weather by CustomWeather, © 2016

Note: Actual official high and low records may vary slightly from our data, if they occured in-between our weather recording intervals... More about our weather records

Advertising

Osorno Weather History for the Previous 24 Hours

Scroll right to see more
 ConditionsComfort  
Time TempWeatherWind HumidityBarometerVisibility
11:00 AM
Sat, Apr 30
52 °FSunny.2 mph77%30.01 "Hg10 mi
10:00 AM41 °FSunny.2 mph93%30.04 "Hg10 mi
9:00 AM36 °FSunny.3 mph93%30.04 "Hg10 mi
8:00 AM36 °FClear.No wind93%30.04 "Hg10 mi
7:00 AM36 °FClear.No wind93%30.04 "Hg10 mi
6:00 AM36 °FClear.No wind93%30.04 "Hg10 mi
4:00 AM37 °FFog.No wind93%30.07 "Hg4 mi
3:00 AM37 °FFog.No wind93%30.09 "Hg4 mi
1:00 AM39 °FClear.No wind93%30.12 "Hg10 mi
12:00 AM43 °FClear.No wind87%30.12 "Hg10 mi
11:00 PM
Fri, Apr 29
43 °FClear.2 mph93%30.15 "Hg10 mi
10:00 PM46 °FClear.No wind82%30.15 "Hg10 mi
9:00 PM50 °FClear.5 mph76%30.15 "Hg10 mi
8:00 PM52 °FClear.3 mph72%30.15 "Hg10 mi
7:00 PM57 °FClear.5 mph59%30.15 "Hg10 mi
6:00 PM63 °FSunny.3 mph45%30.15 "Hg10 mi
5:00 PM64 °FSunny.6 mph49%30.15 "Hg10 mi
4:00 PM64 °FSunny.3 mph43%30.18 "Hg10 mi
3:00 PM63 °FSunny.3 mph42%30.18 "Hg10 mi
2:00 PM63 °FSunny.5 mph45%30.21 "Hg10 mi
1:00 PM64 °FSunny.5 mph37%30.21 "Hg10 mi
12:00 PM59 °FSunny.1 mph59%30.21 "Hg10 mi
Weather by CustomWeather, © 2016

See weather overviewHow to use our weather pages